TimeEST,TemperatureF,Dew PointF,Humidity,Sea Level PressureIn,VisibilityMPH,Wind Direction,Wind SpeedMPH,Gust SpeedMPH,PrecipitationIn,Events,Conditions,WindDirDegrees,DateUTC
12:14 AM,26.6,24.8,93,30.28,8.0,WNW,5.8,-,0.00,Snow,Light Snow,290,2013-12-07 05:14:00
12:37 AM,26.6,23.0,86,30.28,6.0,NW,4.6,-,0.00,Snow,Light Snow,320,2013-12-07 05:37:00
12:51 AM,26.1,23.0,88,30.32,7.0,WNW,6.9,-,N/A,Snow,Light Snow,300,2013-12-07 05:51:00
1:35 AM,26.6,21.2,80,30.28,9.0,NW,6.9,-,0.00,Snow,Light Snow,310,2013-12-07 06:35:00
1:51 AM,26.1,21.0,81,30.32,9.0,NW,6.9,-,0.00,Snow,Light Snow,310,2013-12-07 06:51:00
2:22 AM,26.6,21.2,80,30.29,9.0,NW,8.1,-,0.00,Snow,Light Snow,310,2013-12-07 07:22:00
2:51 AM,26.1,21.0,81,30.35,9.0,WNW,5.8,-,0.00,Snow,Light Snow,300,2013-12-07 07:51:00
3:27 AM,26.6,21.2,80,30.31,9.0,NW,6.9,-,0.00,Snow,Light Snow,310,2013-12-07 08:27:00
3:51 AM,26.1,21.0,81,30.37,9.0,WNW,5.8,-,0.00,Snow,Light Snow,300,2013-12-07 08:51:00
4:51 AM,26.1,19.0,75,30.38,9.0,NW,11.5,-,0.00,Snow,Light Snow,320,2013-12-07 09:51:00
5:51 AM,25.0,19.0,78,30.42,9.0,NW,12.7,-,0.00,Snow,Light Snow,320,2013-12-07 10:51:00
6:51 AM,25.0,18.0,75,30.45,8.0,NW,10.4,-,N/A,Snow,Light Snow,320,2013-12-07 11:51:00
7:51 AM,24.1,17.1,75,30.47,9.0,NW,8.1,-,0.00,Snow,Light Snow,310,2013-12-07 12:51:00
8:51 AM,24.1,16.0,71,30.49,9.0,WNW,6.9,-,0.00,Snow,Light Snow,300,2013-12-07 13:51:00
9:51 AM,24.1,14.0,65,30.52,9.0,WNW,9.2,-,0.00,Snow,Light Snow,300,2013-12-07 14:51:00
10:51 AM,25.0,14.0,63,30.53,10.0,WNW,9.2,-,0.00,,Mostly Cloudy,290,2013-12-07 15:51:00
11:51 AM,24.1,12.9,62,30.53,9.0,NW,8.1,-,0.00,Snow,Light Snow,310,2013-12-07 16:51:00
12:51 PM,23.0,12.9,65,30.53,9.0,West,10.4,-,0.00,Snow,Light Snow,270,2013-12-07 17:51:00
1:51 PM,23.0,14.0,68,30.53,9.0,NW,10.4,-,0.00,Snow,Light Snow,310,2013-12-07 18:51:00
2:51 PM,23.0,10.9,60,30.53,9.0,West,10.4,-,0.00,Snow,Light Snow,280,2013-12-07 19:51:00
3:19 PM,21.2,10.4,63,30.48,9.0,NNW,8.1,-,0.00,,Mostly Cloudy,330,2013-12-07 20:19:00
3:51 PM,21.9,10.9,63,30.54,10.0,NW,6.9,-,0.00,,Mostly Cloudy,320,2013-12-07 20:51:00
4:51 PM,21.9,12.0,66,30.55,10.0,NNW,9.2,-,N/A,,Mostly Cloudy,330,2013-12-07 21:51:00
5:15 PM,21.2,12.2,68,30.50,10.0,NNW,8.1,-,N/A,,Mostly Cloudy,330,2013-12-07 22:15:00
5:51 PM,21.9,12.0,66,30.57,10.0,NW,8.1,-,N/A,,Mostly Cloudy,320,2013-12-07 22:51:00
6:51 PM,19.9,10.9,68,30.59,10.0,WNW,3.5,-,N/A,,Mostly Cloudy,300,2013-12-07 23:51:00
7:16 PM,17.6,12.2,79,30.53,10.0,Calm,Calm,-,N/A,,Mostly Cloudy,0,2013-12-08 00:16:00
7:51 PM,17.1,12.0,81,30.60,10.0,Calm,Calm,-,N/A,,Mostly Cloudy,0,2013-12-08 00:51:00
8:51 PM,15.1,10.9,84,30.60,10.0,Calm,Calm,-,N/A,,Mostly Cloudy,0,2013-12-08 01:51:00
9:31 PM,17.6,12.2,79,30.54,10.0,SSW,3.5,-,N/A,,Mostly Cloudy,200,2013-12-08 02:31:00
9:51 PM,18.0,12.9,81,30.61,10.0,Calm,Calm,-,N/A,,Mostly Cloudy,0,2013-12-08 02:51:00
10:33 PM,17.6,10.4,73,30.54,10.0,South,4.6,-,N/A,,Mostly Cloudy,190,2013-12-08 03:33:00
10:51 PM,19.0,12.0,74,30.60,10.0,South,4.6,-,N/A,,Mostly Cloudy,190,2013-12-08 03:51:00
11:51 PM,19.9,12.9,74,30.61,10.0,South,5.8,-,N/A,,Mostly Cloudy,190,2013-12-08 04:51:00